RH
95 95 97 93 71 46 34 25 16 13 11 10 9 8 8 7 7 6 6 6 5 6 5 5 5 4 6 5 6 10 11 19 30 31 25 18 12 12 12 11 12 12 24 41 39 35 38 33 29 26 23 24 22 23 25 21 21 23 35 38 23 19 18 16 18 16 16 15 14 15 14 15 18 18 17 18 20 21 23 24 23 23 24 26 32 39 43 47
95 92 94 91 75 55 34 21 17 13 11 10 9 9 8 8 7 7 7 5 6 6 5 6 4 5 5 5 9 12 16 28 33 22 15 16 13 12 10 11 13 12 25 39 34 31 31 26 24 23 19 21 20 18 21 20 21 24 35 38 24 17 15 15 16 14 16 16 16 15 14 15 16 17 16 18 21 21 23 25 24 25 27 29 34 41 44 47
96 94 94 84 73 65 38 19 19 14 11 11 10 10 8 8 7 7 7 6 6 5 5 6 4 5 4 6 11 14 30 37 26 15 13 14 11 13 12 11 13 12 25 35 29 27 25 21 20 19 17 18 17 17 19 20 21 23 37 42 23 15 15 13 14 14 14 15 17 16 14 15 14 15 16 18 20 19 22 24 24 29 31 31 34 40 43 45
99 96 96 87 78 71 44 21 19 14 12 12 10 11 9 8 8 7 7 6 6 5 5 5 5 6 3 8 11 21 42 34 14 12 13 12 11 12 11 11 12 13 25 30 25 24 20 17 18 17 16 16 14 15 17 18 20 25 47 49 20 12 15 12 14 14 13 14 16 17 16 16 14 14 15 17 19 18 19 20 23 29 31 31 34 38 41 43
101 97 96 97 91 81 54 27 19 14 11 12 11 11 9 9 9 7 7 6 6 6 5 5 6 5 5 10 14 30 41 21 8 14 13 11 11 12 12 12 11 19 33 28 20 21 17 15 18 16 15 14 12 13 14 15 18 22 35 32 13 14 16 12 13 13 13 14 15 16 17 16 14 14 15 17 18 17 16 17 20 25 29 31 33 36 39 41
101 99 97 98 94 83 62 35 20 14 11 11 12 11 10 9 8 8 8 7 6 5 5 6 6 5 7 11 20 36 32 12 8 14 14 12 11 12 14 11 11 26 37 26 17 17 15 15 17 18 14 12 11 11 11 11 14 18 18 16 13 15 13 12 12 12 13 13 15 15 15 15 14 14 15 16 17 14 13 15 17 22 27 29 32 34 37 39
100 100 99 97 92 81 61 35 19 14 12 11 12 11 10 9 8 9 8 7 6 5 5 6 6 6 8 17 33 38 24 9 11 15 13 11 11 12 14 10 13 32 37 23 16 13 13 15 16 16 12 12 11 9 9 8 11 15 14 14 14 13 13 13 11 12 13 13 14 14 14 15 15 16 14 15 15 13 13 14 16 22 25 27 31 33 35 36
100 100 99 97 91 78 55 30 18 13 11 12 12 11 10 9 8 9 8 7 6 5 6 6 8 8 13 28 35 26 15 10 13 16 10 10 15 13 14 16 21 36 34 21 16 12 12 14 14 14 11 11 10 8 8 7 9 12 13 13 13 13 13 12 11 12 12 13 14 13 15 15 14 14 14 14 13 13 14 14 17 22 25 27 30 32 34 36
99 99 100 97 87 76 53 28 17 12 11 12 11 11 10 9 9 10 9 8 6 5 6 7 9 10 23 38 26 12 11 9 11 15 13 17 23 18 18 21 24 30 27 19 15 11 11 12 12 12 11 10 9 8 7 7 9 10 12 12 12 13 12 12 12 11 12 13 14 15 16 15 14 13 14 14 13 14 14 14 18 22 25 26 29 31 34 36
98 99 100 97 89 82 58 28 17 13 12 12 10 11 9 9 11 12 10 8 6 6 7 9 11 18 37 42 21 11 12 8 10 14 15 20 26 24 20 20 21 23 20 16 11 9 9 9 10 10 10 10 8 8 7 7 8 8 11 11 12 12 12 12 11 11 12 12 14 16 17 15 14 14 15 14 12 15 15 15 18 21 24 25 27 29 33 35
98 99 99 95 88 78 51 26 18 14 13 12 11 10 8 8 11 12 10 7 7 9 11 13 16 31 48 38 17 11 10 9 11 12 15 17 20 23 19 18 20 19 16 13 9 7 7 7 7 8 10 9 7 7 6 6 7 8 10 11 12 12 11 11 11 11 11 12 14 15 17 16 15 15 15 14 13 15 16 17 18 20 23 25 27 29 33 35
99 98 94 81 65 53 37 25 20 15 13 12 10 9 8 9 11 11 7 6 11 15 20 22 25 42 51 32 17 13 8 9 10 11 16 15 15 16 15 16 16 17 15 12 9 7 6 6 6 7 9 8 7 8 6 6 7 7 8 10 11 10 11 11 10 10 10 12 13 14 19 19 18 17 13 13 13 14 16 18 19 20 22 25 27 30 34 35
97 95 80 55 38 33 27 22 19 16 14 12 9 8 7 9 11 8 6 11 20 28 34 35 40 54 50 25 13 12 10 10 10 10 14 14 13 12 12 13 13 15 15 12 10 7 7 6 6 6 7 7 7 7 6 6 7 8 8 9 10 10 11 10 9 10 10 12 12 15 24 23 20 18 13 13 14 15 17 18 19 20 21 24 26 30 35 35
95 87 64 38 28 25 20 18 16 15 14 11 9 8 9 11 10 6 12 24 34 41 41 39 51 60 45 22 11 10 11 12 11 12 13 12 11 10 11 12 12 13 14 13 11 8 7 6 6 6 5 6 6 6 7 7 7 8 9 9 10 11 11 9 8 9 10 13 12 16 25 23 18 18 14 13 14 15 17 18 19 19 21 24 25 29 34 35
92 76 53 35 28 22 16 15 14 13 12 10 10 12 14 11 6 9 24 38 43 45 41 43 59 55 32 20 14 11 13 13 13 12 12 12 11 11 11 11 12 12 12 14 12 10 8 7 7 6 6 6 6 6 7 8 8 8 10 11 10 11 11 9 8 10 11 14 14 16 23 20 15 16 14 13 14 15 17 18 18 19 20 22 24 27 32 34
87 66 47 35 29 20 15 13 11 12 10 9 11 12 12 9 9 22 39 46 43 44 51 56 58 45 24 15 14 14 13 12 13 12 11 12 11 11 11 11 12 12 13 12 11 10 8 7 7 6 6 6 7 7 7 9 10 9 10 11 10 10 11 11 9 9 12 15 15 16 20 18 13 14 14 15 15 13 16 18 18 18 18 21 24 25 29 33
81 61 49 38 27 20 15 12 11 10 8 10 11 9 10 13 24 39 48 52 52 55 61 54 42 36 24 13 13 12 10 11 12 12 12 11 10 10 11 11 11 11 11 10 10 9 8 8 7 7 7 7 7 7 9 13 12 10 11 10 9 10 11 12 12 10 11 16 17 16 18 18 14 13 14 16 15 14 15 17 18 18 18 21 23 23 27 32
74 59 53 41 27 21 14 12 12 9 9 12 9 10 18 25 40 55 58 59 63 62 57 46 35 29 21 17 15 9 8 11 11 11 12 10 9 10 10 11 10 9 9 9 9 9 8 8 8 8 7 6 7 7 11 13 11 11 11 10 11 10 10 12 13 11 12 16 17 18 19 18 16 15 16 16 15 15 15 15 17 18 19 22 23 23 25 30
65 54 51 38 27 20 14 13 12 9 14 12 6 21 41 50 60 67 63 57 53 43 34 35 32 18 11 14 13 9 9 10 10 10 8 8 8 9 10 11 10 9 9 10 9 8 8 8 8 8 7 6 8 8 10 10 9 10 9 10 11 10 10 10 12 11 11 16 17 18 18 17 18 18 19 18 17 17 16 16 17 17 19 21 23 23 24 27
59 51 46 35 24 18 14 13 10 11 21 21 22 37 44 42 43 43 44 41 36 27 18 19 21 14 10 9 8 9 10 9 10 9 6 7 8 9 10 10 10 10 9 8 8 7 7 8 8 7 6 6 7 7 8 8 8 8 9 10 10 10 10 8 10 11 11 15 17 17 17 17 17 18 20 20 19 19 18 18 18 18 19 21 23 23 24 26
61 58 46 33 24 16 12 10 10 15 24 34 46 41 21 15 16 15 19 20 17 17 14 12 11 11 10 7 6 7 7 8 8 7 6 7 8 10 10 10 12 11 8 7 7 6 7 8 7 6 5 5 6 7 7 8 8 8 9 10 9 10 9 8 9 11 11 14 17 17 17 17 16 17 18 19 20 20 19 20 20 19 19 20 23 24 24 26
80 77 52 36 26 15 12 9 9 18 28 42 48 30 11 13 15 12 13 11 8 9 9 8 6 7 7 6 6 5 5 7 6 6 6 7 9 10 10 10 11 11 8 7 6 7 8 8 6 5 5 5 6 7 8 8 8 8 9 10 10 9 8 8 8 10 12 14 17 17 17 18 16 16 17 18 21 21 20 20 20 20 21 21 22 24 24 25
95 86 58 42 28 16 13 7 10 30 43 39 29 18 14 16 14 13 13 11 11 8 6 7 6 6 6 5 5 5 6 6 6 6 6 8 9 9 10 10 10 10 8 7 7 7 8 7 5 4 5 5 6 7 7 8 7 8 9 10 11 10 9 10 9 11 13 14 17 17 17 17 16 17 17 18 20 22 20 19 19 20 21 22 21 23 24 25
87 77 60 45 31 19 9 7 17 34 38 24 15 17 18 17 16 15 14 12 11 8 7 7 5 5 5 5 6 5 6 5 5 5 5 8 9 8 9 9 9 10 9 7 6 6 7 6 4 4 4 5 6 6 7 8 8 8 9 9 11 9 8 9 11 13 14 14 16 17 20 20 19 19 18 17 18 20 21 21 21 20 21 22 21 22 24 24
73 64 57 46 36 21 6 16 29 25 18 15 15 19 18 18 19 17 17 17 12 8 7 5 5 6 5 6 7 5 6 6 5 5 5 7 8 8 9 8 9 9 8 8 7 6 6 5 4 4 4 5 6 7 7 8 9 9 8 9 9 9 9 8 11 15 17 18 16 17 26 26 20 20 20 18 18 20 21 22 23 23 22 23 23 23 24 24
65 55 54 47 38 27 13 17 27 22 16 16 16 17 18 18 20 20 21 19 11 8 9 7 6 7 7 8 8 6 8 8 6 5 5 7 7 8 9 9 9 9 8 7 7 7 5 4 5 4 4 5 5 6 6 7 8 9 8 8 8 8 9 9 10 14 19 20 16 16 26 29 22 20 20 18 19 20 21 23 23 24 23 22 23 24 24 24
62 52 52 45 36 40 38 27 25 26 18 16 18 16 15 17 21 22 22 20 12 8 10 9 8 9 9 9 7 8 10 9 7 7 6 7 7 7 9 9 9 9 8 7 9 8 6 5 5 4 4 4 5 6 6 7 8 9 7 7 9 8 9 9 10 13 16 17 17 16 20 28 26 20 17 17 19 20 21 23 23 23 24 23 22 23 24 25
64 53 48 43 30 36 56 55 42 30 16 15 20 18 16 19 22 22 25 24 14 7 11 11 11 11 10 9 8 9 10 8 9 9 7 7 7 7 9 9 9 9 7 8 10 8 6 6 4 4 4 4 5 5 5 6 7 7 6 6 8 8 9 9 10 12 14 17 21 19 17 26 29 21 16 16 17 20 20 21 23 22 22 22 23 23 24 25
63 54 42 38 26 22 50 68 53 32 21 20 22 21 19 19 21 20 22 24 13 7 10 11 12 12 10 10 10 9 9 9 10 9 7 7 8 7 8 8 8 9 8 7 9 8 6 6 4 4 5 5 4 4 5 6 7 6 6 6 7 7 8 9 10 11 13 20 25 20 17 26 30 22 18 17 17 19 18 18 20 20 22 24 26 28 28 27
61 53 35 36 41 34 41 52 44 32 28 28 27 24 19 19 23 22 20 19 11 6 9 11 12 10 10 12 11 10 10 9 9 9 8 8 8 7 7 7 7 8 9 8 8 8 6 5 4 4 5 5 4 4 5 6 6 6 6 7 7 8 8 9 11 12 17 25 25 18 16 23 28 22 17 18 17 16 17 17 17 18 22 25 27 29 27 25
57 47 31 35 49 50 41 30 28 31 31 30 27 21 16 17 21 22 19 14 8 7 9 10 10 9 11 12 10 10 10 8 9 10 10 9 8 8 7 8 8 9 10 10 8 8 7 6 5 4 4 5 5 5 5 5 5 6 6 8 9 10 11 13 13 14 19 24 20 16 14 18 25 22 16 16 15 13 15 17 16 17 21 24 26 27 24 23
52 39 26 21 31 51 49 25 20 31 35 33 26 16 14 17 19 19 16 10 9 9 8 9 9 9 10 10 9 9 9 9 9 10 10 9 9 8 8 11 11 11 13 12 10 9 9 7 5 5 5 5 5 4 4 4 5 6 7 9 11 13 16 19 18 16 19 19 16 14 15 18 22 19 15 14 13 12 14 15 14 14 17 21 23 23 23 22
47 32 22 15 27 52 54 37 36 41 40 37 27 14 13 19 21 17 11 9 9 9 7 7 8 8 10 9 8 8 9 9 8 10 10 9 9 8 9 10 9 10 12 11 11 11 11 8 6 6 6 4 5 4 4 5 5 6 7 10 13 14 19 23 20 18 18 17 13 12 15 19 19 15 14 13 12 11 11 12 12 11 12 16 19 21 22 21
37 28 30 29 37 47 46 47 53 51 45 36 23 13 13 19 18 12 10 9 8 7 8 7 7 8 9 8 8 8 8 8 8 9 10 9 10 9 9 9 7 8 9 9 11 12 13 11 7 7 7 5 5 4 4 4 5 6 6 8 11 12 17 21 19 18 19 16 14 14 17 20 19 16 13 11 10 10 10 11 11 11 10 11 14 19 22 21
35 34 40 37 36 39 41 48 53 54 47 31 17 13 15 17 14 10 10 8 6 7 7 7 8 9 9 8 8 6 7 8 6 8 10 10 10 9 9 9 8 7 7 10 11 10 12 11 6 6 6 5 5 4 3 3 5 5 5 7 10 9 13 16 15 16 17 16 16 15 16 16 15 14 11 10 11 10 10 10 9 10 10 9 11 17 20 19
49 44 41 33 27 31 40 47 50 53 45 26 16 14 12 12 10 8 8 7 7 7 6 8 9 10 10 9 8 7 6 7 7 7 9 9 9 9 8 8 7 7 7 9 10 10 12 11 6 6 6 5 5 4 3 3 4 6 7 9 8 7 10 13 14 14 14 17 16 14 14 13 13 11 10 11 12 10 11 10 9 9 10 9 11 17 22 22
60 50 42 33 26 29 40 45 47 49 41 27 20 15 10 9 7 7 7 6 7 6 7 8 9 9 10 9 8 7 7 7 7 8 9 9 9 8 7 7 7 7 7 8 8 8 10 11 7 6 7 6 5 4 4 3 4 6 8 8 7 7 9 11 15 16 16 18 16 12 12 13 14 12 12 13 12 12 12 10 9 9 9 9 10 13 20 23
66 52 41 33 31 36 42 44 44 43 38 31 26 20 13 8 6 6 5 5 7 8 9 9 7 8 8 8 8 6 7 9 8 8 9 9 9 8 8 7 6 6 6 7 8 7 8 10 9 6 7 7 5 5 5 3 3 5 5 5 6 10 11 12 15 16 18 19 17 14 12 12 12 12 13 15 13 12 13 12 10 8 8 9 10 11 16 21
62 42 29 28 35 38 41 41 37 36 37 35 30 23 16 10 8 6 5 5 5 7 11 10 7 7 7 6 7 6 6 8 8 8 9 9 9 7 7 7 7 7 6 6 8 7 8 11 10 7 6 6 6 6 7 6 4 3 4 4 6 9 10 12 13 13 16 19 18 16 14 13 12 10 12 14 12 11 12 12 10 8 8 8 8 10 14 19
47 31 24 29 38 38 38 35 29 31 37 36 29 21 15 12 9 7 5 6 5 5 10 11 8 8 8 6 6 5 5 7 7 8 8 8 8 7 7 7 7 7 6 6 7 7 8 12 12 8 5 6 8 7 7 6 5 4 4 4 6 8 8 9 10 9 13 17 18 18 18 14 11 8 9 11 11 10 11 11 10 9 8 7 8 9 11 17
40 36 27 28 36 36 33 28 24 27 31 29 27 22 18 14 10 8 7 5 5 5 5 7 8 8 8 8 7 6 6 6 6 7 8 7 7 8 8 7 7 7 7 7 7 8 9 11 13 10 7 8 8 6 6 5 4 4 3 4 6 8 8 10 12 11 10 13 15 16 18 15 9 8 8 9 10 9 9 9 9 8 7 7 9 8 10 17
43 39 26 23 29 28 26 25 22 22 23 23 22 20 18 17 13 10 8 6 6 6 5 5 6 6 7 8 7 8 8 7 7 7 7 6 6 8 7 7 7 6 8 9 8 8 8 10 13 11 8 7 7 5 5 5 4 4 3 3 5 6 8 11 14 13 10 11 11 13 16 14 9 8 8 8 9 9 8 8 8 8 7 8 8 7 12 21
41 36 27 24 23 18 21 26 24 21 20 19 17 15 16 16 15 12 10 8 7 6 6 6 5 6 6 6 6 7 8 8 9 9 8 7 6 7 8 7 7 7 8 9 8 8 10 10 13 14 10 7 6 5 5 5 5 4 4 4 3 4 6 8 10 11 11 12 12 13 17 14 9 9 9 9 10 9 8 8 9 9 8 8 8 10 14 20
41 37 31 27 23 21 23 25 25 22 19 16 15 15 14 12 13 14 12 11 10 8 7 6 5 5 5 5 6 7 7 9 9 9 8 8 6 6 7 6 8 8 6 10 11 8 11 13 14 17 17 13 9 8 7 6 5 4 4 4 3 4 5 6 8 11 12 12 12 14 16 12 9 11 9 8 10 9 8 8 8 9 9 7 7 11 15 18
46 38 29 24 22 26 27 23 23 23 21 20 18 16 15 14 12 12 12 12 11 10 8 7 6 5 5 5 6 6 7 8 9 9 8 8 7 6 6 7 9 6 7 22 24 10 9 15 15 17 20 18 15 13 10 8 6 5 5 4 4 5 5 4 7 11 13 13 14 15 14 11 10 11 10 8 9 10 9 9 8 8 9 7 9 15 19 22
51 42 31 24 19 22 26 24 25 28 26 27 27 21 19 20 17 14 13 14 13 12 11 9 7 6 6 6 6 7 7 6 7 9 8 8 8 6 6 7 6 8 18 29 24 11 10 15 15 17 19 16 15 13 10 8 7 6 6 4 4 4 4 4 7 10 11 13 16 17 14 12 10 10 10 9 8 9 10 10 9 8 8 7 14 26 28 27
58 50 36 33 32 31 30 27 30 38 38 38 39 34 28 27 25 21 18 16 13 13 13 12 10 9 7 6 7 7 7 7 7 8 8 8 7 5 6 5 4 14 26 22 13 12 16 15 14 17 17 14 13 11 8 8 8 7 6 5 4 3 4 5 8 9 9 11 13 15 15 14 11 11 11 10 9 10 11 11 10 10 9 6 14 29 34 32
58 49 35 35 42 40 36 32 34 41 45 44 41 38 37 35 31 28 24 20 16 13 13 15 13 11 10 9 8 8 8 8 8 8 8 8 7 6 6 5 5 15 20 12 8 14 17 16 14 13 14 14 12 10 9 8 9 7 5 5 5 5 4 5 6 6 8 11 11 12 14 14 12 11 9 9 10 9 9 10 9 9 9 8 10 18 22 27
55 46 36 33 39 40 37 34 35 39 41 41 38 34 35 37 34 30 26 26 27 21 16 16 14 12 12 11 10 12 12 10 10 10 9 9 8 8 8 7 5 9 12 10 11 14 16 19 17 13 14 14 12 12 10 8 9 9 7 7 6 6 5 4 5 4 6 9 8 8 12 12 10 9 8 7 8 8 8 9 9 8 9 10 10 9 9 15
57 50 44 41 39 38 36 32 31 33 31 31 32 29 27 31 32 30 26 31 39 36 28 29 27 24 24 21 17 15 12 11 11 10 10 10 9 9 10 9 8 9 10 12 13 13 16 22 21 17 17 16 13 13 11 9 10 9 9 9 7 7 7 5 5 4 5 7 6 6 11 12 9 8 8 8 9 9 9 9 10 10 9 9 9 8 8 9
56 47 44 48 48 42 39 36 32 32 31 30 29 26 23 25 26 28 31 32 37 38 36 39 40 36 33 30 25 18 14 15 17 14 12 11 11 11 9 8 9 10 11 12 12 14 18 21 20 20 24 22 17 16 14 12 11 10 10 10 8 8 8 7 7 6 6 7 7 7 9 10 8 7 8 9 10 10 10 9 9 10 10 9 9 9 9 10
65 56 44 50 57 48 40 39 35 35 34 30 27 25 23 24 23 29 38 35 30 30 33 38 41 39 38 38 35 28 23 24 23 21 18 17 17 16 13 10 10 10 11 11 12 14 18 20 21 24 28 26 20 17 15 14 18 19 14 10 10 9 8 7 7 7 6 6 7 7 8 7 7 7 8 9 10 11 11 11 10 12 13 12 11 10 9 9
Wind_Speed
21 22 21 21 21 20 20 20 20 19 20 20 21 22 22 21 21 21 22 23 24 24 25 24 23 22 23 23 22 22 23 22 15 14 14 12 9 8 8 11 14 11 15 16 16 17 17 17 16 16 12 10 8 7 9 6 6 6 2 4 1 1 2 3 4 4 5 8 10 9 6 8 9 7 7 6 8 12 9 8 8 7 7 12 19 23 25 25
21 22 22 22 21 21 21 20 20 19 20 21 21 22 22 22 22 22 22 23 24 25 25 25 23 22 22 22 20 19 22 20 18 20 17 13 7 7 8 11 15 14 18 18 19 19 15 14 15 15 11 8 8 8 8 6 2 3 1 5 2 2 3 3 4 5 5 7 9 8 6 7 9 8 7 8 10 12 10 11 10 9 11 15 23 25 24 25
21 22 22 22 22 21 21 21 20 20 20 22 22 23 23 23 23 23 23 23 23 24 25 25 24 22 21 20 18 17 17 17 19 12 7 7 4 6 6 10 15 17 21 19 18 18 15 14 14 13 10 8 8 7 6 5 4 1 2 5 3 3 2 3 3 4 6 7 9 8 6 7 8 7 7 8 11 11 9 11 11 11 14 17 21 23 23 24
22 22 23 23 23 22 22 22 21 21 21 22 23 24 24 24 24 24 24 24 24 24 25 24 24 22 20 18 15 13 13 15 11 5 11 2 7 6 4 8 15 20 22 18 16 17 16 14 13 13 11 9 8 8 7 6 6 3 4 7 2 4 1 5 4 4 7 6 8 8 6 7 8 7 6 7 9 8 8 11 12 12 15 18 21 22 22 22
23 23 23 23 23 23 23 23 23 22 22 23 24 25 25 25 25 25 25 25 24 24 24 23 23 22 20 16 10 10 12 8 3 11 7 4 8 6 3 6 14 21 22 18 15 16 17 15 13 12 10 9 9 8 9 9 8 6 8 9 1 3 2 5 4 5 7 7 10 8 7 8 7 7 6 7 6 5 8 11 13 15 16 19 20 21 21 20
24 24 23 24 24 24 24 24 23 22 23 24 25 26 26 27 27 27 26 25 25 24 24 23 22 21 18 13 7 7 10 6 3 4 2 6 5 4 2 4 14 21 21 19 16 16 16 15 13 12 10 10 12 10 9 10 9 7 6 6 3 3 1 3 4 6 5 6 9 8 8 8 7 8 7 7 4 3 9 12 13 15 17 20 20 20 20 19
25 25 24 24 24 25 25 24 24 24 24 25 27 27 27 28 28 28 28 27 25 24 23 22 21 19 16 10 6 7 10 12 8 3 2 6 2 2 2 6 14 20 20 19 17 15 15 16 15 13 11 11 12 12 10 10 12 8 6 6 6 5 3 1 2 6 6 4 6 6 8 9 8 8 8 8 4 4 8 13 13 15 18 20 20 19 20 19
25 26 26 25 25 26 26 25 25 26 26 27 28 28 28 28 29 29 28 27 25 23 22 20 19 17 12 7 7 8 11 11 1 6 4 4 2 1 4 9 16 19 19 19 17 15 15 16 17 13 12 12 12 12 11 10 11 10 9 6 6 6 5 4 4 5 7 5 6 7 8 9 7 7 8 9 8 5 7 13 14 16 18 19 19 19 19 18
25 26 26 26 26 26 26 26 27 28 28 28 29 30 30 29 30 30 28 26 24 23 21 19 18 12 6 4 8 10 7 4 3 3 2 2 5 4 6 11 17 18 18 18 17 16 14 14 17 15 13 13 13 13 11 10 8 10 10 8 7 7 7 6 7 6 6 6 7 8 8 8 8 7 8 9 10 8 8 13 14 16 17 17 18 19 18 18
25 25 26 27 27 27 27 27 29 30 30 30 30 30 30 30 31 29 27 25 23 22 20 18 13 5 4 6 10 9 2 2 2 2 4 6 7 8 9 10 16 17 16 17 17 18 15 13 15 14 13 13 13 13 11 10 9 8 9 9 9 9 9 8 8 7 7 7 9 10 8 9 9 6 7 10 11 9 11 13 14 16 16 16 17 17 17 17
26 26 26 27 27 27 29 30 31 31 31 31 32 31 31 31 31 28 26 24 22 20 17 14 8 4 7 8 9 8 2 2 5 4 5 7 8 10 10 10 13 16 16 15 17 19 18 17 14 10 10 12 12 14 13 12 11 7 7 9 11 11 11 10 9 8 7 8 11 10 9 10 10 6 7 12 12 10 12 13 15 15 15 15 16 16 14 15
26 27 27 27 29 30 31 33 33 32 32 33 32 31 31 31 29 27 26 23 19 16 12 10 4 6 8 9 12 15 10 9 9 7 8 9 10 11 10 9 11 15 16 15 16 18 19 19 17 13 11 10 11 12 10 13 14 9 8 10 11 13 11 11 10 9 9 8 11 10 9 10 11 8 8 15 14 12 14 14 15 15 14 15 15 15 13 14
27 28 28 29 31 32 34 34 34 34 34 34 33 32 31 29 26 26 25 19 15 12 9 5 5 7 8 8 12 17 13 13 13 11 11 10 12 13 12 13 13 14 16 16 15 17 18 18 18 17 14 12 12 9 6 9 14 11 11 10 9 11 10 12 12 11 10 9 12 11 7 8 11 11 10 16 15 13 14 14 14 14 13 14 14 14 14 15
28 29 28 31 33 34 35 35 35 35 35 35 34 32 29 25 24 26 21 14 11 8 4 3 8 7 8 9 15 16 12 12 13 13 13 12 14 15 14 15 15 15 16 17 17 15 16 17 17 15 14 14 13 11 8 8 11 11 11 9 8 8 7 12 12 11 11 10 13 13 6 6 12 14 13 16 16 15 14 14 14 13 13 13 13 14 14 15
29 30 29 32 34 35 35 35 36 36 36 36 35 30 25 24 24 22 15 10 7 1 4 6 8 7 8 12 15 13 11 11 11 13 13 13 13 13 14 15 15 15 14 15 16 14 14 16 16 12 12 14 15 14 10 8 9 9 10 9 9 8 6 10 11 11 11 10 13 13 6 5 11 15 15 15 15 16 14 14 15 14 15 14 13 14 14 14
30 32 31 33 36 36 35 36 37 37 37 37 32 26 23 24 21 15 9 6 2 5 7 5 9 9 8 7 2 7 10 10 10 11 11 10 11 10 12 14 13 13 12 13 14 13 14 14 13 11 11 13 14 12 8 9 10 10 10 9 10 10 7 7 10 12 12 11 13 14 7 4 8 15 16 16 16 16 14 14 15 15 15 15 13 13 13 14
32 32 32 35 37 36 36 36 37 37 38 35 29 25 22 20 14 8 4 1 2 5 6 6 5 8 9 5 1 7 11 10 9 12 10 7 7 8 10 12 11 12 12 12 13 12 13 12 9 9 11 12 12 11 10 10 10 9 10 10 11 12 10 8 10 13 14 12 13 14 10 4 7 14 15 15 17 15 13 14 15 14 14 14 13 13 14 14
33 34 33 36 38 37 36 37 37 38 37 31 26 24 21 15 8 4 1 4 4 6 9 9 6 6 7 7 10 10 10 12 11 12 10 8 9 8 9 12 10 12 12 11 12 12 11 10 9 10 12 12 12 12 12 12 12 12 12 9 10 12 12 11 10 12 15 13 13 14 12 7 8 13 13 14 16 15 13 13 14 15 14 14 14 14 14 15
35 35 35 37 38 37 37 37 37 38 34 27 23 20 16 9 4 6 7 8 7 6 6 6 10 7 5 3 9 8 7 12 11 10 9 9 11 11 12 13 11 12 12 9 12 14 11 9 11 12 12 14 16 16 15 16 16 15 13 11 11 11 11 12 12 13 15 14 13 14 13 10 10 12 12 12 13 13 13 13 13 14 14 14 14 14 14 15
36 35 36 38 37 38 38 36 38 36 28 24 24 17 10 5 4 4 6 10 11 12 13 7 13 13 12 6 7 8 8 11 11 10 11 9 11 12 13 13 12 12 12 11 12 14 12 11 13 14 15 19 21 20 19 20 20 17 14 13 13 12 10 12 14 14 15 13 12 14 13 13 13 13 13 12 12 13 13 13 12 13 14 14 15 15 15 16
36 35 37 38 38 39 37 36 38 31 19 17 19 13 5 6 6 5 4 10 15 17 21 19 16 17 18 14 10 9 9 11 14 14 12 11 13 12 12 13 13 11 12 14 12 12 13 13 15 18 19 21 21 22 21 21 22 18 14 12 12 13 11 12 14 16 15 12 11 14 14 15 14 13 14 14 14 14 14 14 13 14 15 14 15 17 16 15
33 33 38 39 38 40 36 37 35 22 13 11 12 10 5 8 7 8 9 12 15 18 21 22 22 20 19 18 17 13 10 11 14 13 12 14 14 12 12 14 14 11 14 15 11 11 13 14 18 20 20 20 20 22 23 23 22 17 13 12 11 11 11 12 14 18 14 9 9 14 14 13 14 14 14 15 14 13 14 14 13 14 14 14 15 16 16 15
30 32 39 39 39 39 36 38 28 12 10 10 10 9 5 6 8 10 9 10 14 18 19 20 21 20 18 18 18 16 14 14 14 14 16 15 14 14 13 14 15 14 14 16 14 12 12 14 19 20 20 21 22 22 24 21 18 16 14 11 10 12 12 9 9 15 14 9 9 12 12 10 13 14 14 15 14 13 14 15 14 14 14 15 16 16 16 17
31 35 39 39 40 38 36 35 18 6 10 12 11 6 3 6 10 12 10 8 12 13 16 19 17 17 18 13 13 18 16 14 14 14 18 18 15 14 14 14 15 15 14 18 19 16 14 14 18 21 21 23 23 22 22 18 14 16 17 14 12 14 16 10 9 12 11 11 11 11 10 9 12 14 14 14 14 15 15 16 15 14 15 15 16 16 17 18
35 38 39 40 39 38 38 26 9 10 17 13 7 1 3 8 9 11 9 6 9 8 10 15 12 12 13 8 10 15 13 13 15 13 16 21 18 13 12 12 11 14 17 20 20 16 16 14 16 21 21 22 23 21 21 17 13 16 19 18 17 15 17 15 12 12 9 11 13 13 9 8 12 15 14 12 14 16 15 15 16 14 14 15 15 16 17 18
38 39 39 39 38 40 33 13 9 21 20 8 2 2 6 9 9 10 7 5 8 4 6 9 9 8 11 10 10 12 12 13 14 13 15 21 20 14 11 10 8 13 17 17 14 10 12 15 16 21 22 23 23 19 21 21 14 13 17 20 21 18 17 17 14 12 9 9 12 14 11 8 10 14 15 14 15 17 16 16 17 14 14 15 15 15 16 18
39 39 39 38 37 37 23 10 17 22 12 3 5 8 10 9 10 10 5 5 7 6 9 6 6 8 9 11 14 12 7 7 12 14 15 19 20 15 13 12 10 12 13 11 10 9 12 18 19 21 23 21 18 17 20 22 15 12 16 21 22 21 20 18 15 11 9 9 11 15 13 9 8 11 15 17 16 17 17 17 16 14 16 17 16 16 17 18
39 40 39 37 37 32 16 17 20 14 8 9 10 11 11 10 11 7 5 6 3 6 7 4 4 6 7 11 17 13 3 7 11 13 16 20 20 15 14 16 13 13 15 12 10 11 14 20 21 21 19 16 17 18 20 21 17 15 18 20 20 21 21 19 15 10 10 10 10 14 15 11 8 9 12 16 18 18 18 17 17 18 19 18 17 18 19 19
40 40 38 38 38 25 8 14 16 13 12 13 12 12 11 12 9 5 6 6 2 3 5 6 6 7 9 11 16 15 6 6 6 9 16 18 19 16 12 15 16 14 17 16 13 11 13 17 20 18 15 15 17 18 20 21 17 15 19 20 18 18 19 19 15 11 11 11 11 14 15 10 8 9 11 13 14 15 15 15 16 17 16 15 15 17 19 19
41 40 37 39 35 19 8 14 19 18 15 11 11 12 12 11 6 6 8 5 4 4 7 7 7 12 13 13 14 15 13 11 6 10 13 14 18 18 11 12 15 12 14 16 16 15 12 14 16 15 14 15 16 16 20 23 19 16 17 18 17 16 15 14 13 11 10 10 14 18 19 14 10 10 11 11 12 13 13 12 13 13 13 15 16 16 19 18
41 40 37 36 30 17 12 12 9 8 8 7 11 11 10 7 5 9 8 2 4 5 10 8 11 14 17 16 12 14 16 13 10 12 12 12 15 16 12 11 12 10 12 13 14 16 15 13 13 13 15 15 16 18 20 22 21 18 15 14 15 13 10 10 11 12 12 11 15 20 22 19 13 10 10 13 17 16 13 12 14 15 16 17 17 17 18 17
41 39 35 32 27 17 15 13 8 8 6 8 11 8 6 6 8 11 7 1 1 7 10 10 14 14 18 18 13 15 16 13 13 14 13 12 13 14 14 12 10 11 12 11 12 14 16 15 13 13 16 18 17 16 16 18 19 17 14 13 14 11 8 10 11 12 12 12 14 18 20 18 13 12 13 15 17 17 15 14 16 17 19 19 18 18 17 17
41 39 32 25 18 15 19 19 15 12 10 9 9 6 6 9 10 10 11 6 2 5 5 10 14 15 17 17 13 14 15 13 15 15 15 15 13 15 19 17 16 13 11 11 12 12 12 16 18 16 14 18 19 14 13 14 15 17 15 13 13 12 10 11 12 12 12 12 15 17 16 14 11 13 17 17 16 15 15 17 17 16 16 18 19 16 14 15
41 33 26 22 18 18 17 15 13 10 9 9 7 7 11 13 10 9 13 13 8 3 3 8 13 15 17 15 12 13 13 12 15 16 15 15 13 13 17 20 22 17 10 11 11 11 12 13 17 18 12 15 21 19 16 14 14 17 17 15 15 13 11 11 11 11 12 12 15 17 14 11 10 11 14 17 17 14 12 15 16 14 14 12 15 15 13 15
38 26 21 20 18 16 13 12 11 8 8 8 7 9 14 13 9 10 11 11 11 9 7 8 10 13 14 13 14 16 14 11 15 17 14 14 14 13 14 17 22 19 12 11 9 11 14 11 14 20 16 17 22 21 19 17 15 14 14 15 16 14 12 11 11 12 13 12 12 13 11 9 10 10 9 11 15 16 14 15 17 17 16 11 9 13 13 14
32 23 19 16 13 9 8 9 8 9 9 8 9 12 14 11 9 9 8 8 12 12 11 10 11 12 12 11 14 18 15 11 14 14 13 15 16 16 16 14 20 22 16 11 8 8 12 10 13 20 20 20 20 19 21 19 13 10 12 17 16 15 15 13 12 13 14 13 11 11 11 11 13 13 11 12 14 15 15 17 19 19 16 11 8 11 14 15
26 20 18 17 14 8 7 6 7 10 9 8 12 14 11 12 13 12 10 9 10 12 13 11 10 12 12 10 12 17 17 13 14 12 11 14 15 17 19 15 19 24 21 15 10 8 9 9 12 19 21 21 18 19 23 23 17 10 12 17 16 16 17 13 11 12 13 13 11 13 17 14 12 10 10 16 18 15 15 18 19 19 15 12 11 12 14 16
24 21 20 17 11 6 6 5 7 9 7 8 15 17 13 12 15 15 15 14 11 11 12 12 9 11 13 12 11 16 17 13 13 12 11 12 11 16 19 16 17 23 24 20 12 8 10 8 11 18 19 19 18 17 18 21 24 20 13 14 14 14 15 12 11 12 13 13 10 15 19 15 12 10 10 17 20 18 19 20 19 18 16 14 14 12 13 14
21 16 11 3 8 8 5 5 7 8 8 10 14 14 12 14 16 17 17 17 15 12 12 13 12 11 13 13 12 15 17 15 13 13 11 9 9 15 19 15 16 20 24 22 14 9 10 7 8 14 16 16 14 13 13 15 22 24 19 14 13 12 13 13 13 12 12 12 11 14 16 12 11 12 12 16 18 19 20 20 18 18 18 15 13 12 12 14
13 9 5 5 8 6 4 6 8 8 9 12 13 11 12 14 17 19 21 19 15 11 12 14 14 12 13 15 15 13 15 16 16 13 11 11 11 13 17 16 16 19 22 23 18 11 9 8 7 10 15 14 11 13 16 15 16 18 18 16 14 11 12 14 15 13 12 12 10 11 12 10 10 12 14 16 15 15 17 18 16 17 19 14 11 13 13 13
9 8 4 6 6 4 4 7 8 8 10 12 13 14 15 14 14 18 22 22 18 13 13 15 15 14 14 14 14 12 12 14 16 13 11 14 14 10 12 15 15 16 18 19 17 13 9 7 8 9 11 13 14 16 19 19 17 16 16 17 16 13 12 14 14 13 14 13 11 10 11 11 9 11 13 13 12 13 15 17 16 17 16 10 10 14 15 14
9 8 4 2 4 7 8 8 8 8 10 11 13 15 15 14 15 17 18 20 19 16 15 16 16 16 15 14 13 13 13 12 12 14 12 13 16 12 11 16 17 16 15 13 15 15 11 7 8 10 10 13 17 18 20 22 22 19 17 17 18 16 13 13 12 13 14 14 14 13 12 11 10 10 9 10 12 15 16 14 12 13 12 10 13 14 13 16
7 9 13 17 17 13 10 9 9 10 10 13 16 18 17 15 16 17 16 16 16 14 14 15 17 18 16 15 15 14 15 12 11 14 13 12 15 12 10 15 18 17 14 13 14 15 11 8 9 10 9 11 15 17 19 21 21 18 17 18 18 18 18 15 12 12 13 15 16 14 13 12 10 9 8 9 12 15 15 14 13 14 13 13 16 12 8 13
8 9 14 20 17 12 10 10 10 10 12 15 18 19 19 17 16 17 16 15 13 13 14 14 16 17 16 16 17 16 15 13 12 15 15 13 13 12 11 13 13 15 13 9 8 12 11 9 10 10 9 10 12 13 15 18 17 14 15 19 19 23 27 21 13 12 14 17 19 15 12 12 11 12 12 11 13 14 15 16 17 17 15 14 15 8 6 8
9 8 9 13 13 11 9 10 10 11 13 16 18 19 18 16 16 18 18 16 15 15 15 14 16 17 16 17 18 18 18 15 12 13 14 14 11 11 14 12 11 16 12 0 4 8 12 10 11 11 11 12 12 11 11 13 14 12 16 22 23 27 31 22 14 14 14 14 18 16 13 12 12 14 17 17 15 15 13 14 15 15 15 16 13 5 7 7
7 7 7 8 8 9 9 9 11 13 12 13 14 16 17 15 14 16 19 18 18 18 16 15 17 17 18 20 19 19 21 20 16 12 13 14 11 10 13 13 14 15 4 7 5 8 9 10 14 15 13 12 12 11 11 12 13 15 19 24 25 26 27 20 14 16 14 12 15 15 15 17 16 15 17 18 17 14 12 12 13 13 14 14 8 6 8 8
6 7 8 7 5 6 8 8 8 8 10 12 9 9 15 15 13 13 16 17 18 20 17 16 17 17 17 20 19 18 20 21 20 17 16 15 13 13 15 17 19 12 3 1 6 7 7 10 17 20 19 17 16 14 15 15 16 19 21 23 24 25 26 23 19 18 16 14 14 15 16 19 19 18 18 18 17 16 14 15 16 14 12 11 7 9 11 11
7 7 8 8 8 7 8 9 7 7 11 12 9 10 14 15 14 13 11 13 15 18 16 15 19 21 20 19 16 16 19 20 20 20 18 16 15 14 16 20 20 13 8 11 12 7 8 11 15 19 21 22 22 20 18 17 18 21 21 21 23 24 27 26 24 23 21 16 15 16 18 21 21 23 24 20 17 16 16 16 17 15 13 13 12 12 13 13
7 7 8 9 9 9 11 13 12 11 12 10 8 11 13 13 15 14 10 11 14 14 14 16 19 19 20 21 17 15 15 16 17 18 17 17 17 15 13 16 18 15 14 15 12 9 9 9 12 16 17 20 23 23 23 21 19 20 21 21 22 24 26 27 25 26 26 23 22 20 20 20 19 22 25 23 20 17 14 15 15 16 17 16 14 14 14 13
7 6 6 7 8 10 12 13 13 12 11 8 8 11 13 14 15 14 11 10 11 12 12 11 12 13 15 18 18 19 18 15 16 16 16 17 17 14 13 12 13 16 18 15 13 13 11 9 12 14 13 15 20 21 23 24 22 22 22 23 25 25 25 26 25 25 25 24 25 24 21 18 16 18 20 21 21 21 18 16 16 15 16 15 14 15 13 11
13 10 8 7 8 9 10 11 11 11 9 8 9 10 12 15 15 12 10 10 11 14 12 12 15 15 15 17 15 16 15 11 12 14 14 14 12 12 13 12 13 15 17 15 13 13 12 10 11 12 11 13 16 19 22 23 23 24 24 24 26 24 22 21 21 22 22 22 23 23 20 16 14 16 17 16 18 23 24 22 19 15 14 13 13 14 14 12
13 10 9 7 7 8 9 9 11 10 9 9 11 12 14 14 12 10 9 8 11 15 10 11 14 12 12 14 11 11 16 16 16 17 13 9 10 10 10 11 14 14 13 14 14 12 12 10 10 11 11 12 17 20 21 20 18 18 20 23 26 24 23 23 21 22 23 22 19 17 16 15 14 16 18 18 18 20 22 22 20 18 15 15 15 15 15 16
Wind_Direction
354 352 351 350 348 348 348 348 349 350 352 350 348 347 346 345 342 339 335 332 332 330 330 329 329 330 329 331 332 332 325 321 306 269 253 258 287 303 277 255 249 218 182 186 191 193 198 207 205 203 205 199 208 233 218 206 264 271 288 287 277 96 93 110 112 93 108 116 123 139 148 133 132 137 121 146 145 133 151 144 127 123 129 126 126 137 141 144
352 350 349 348 347 346 347 348 349 351 350 349 347 345 344 343 341 339 335 331 329 327 328 326 327 328 327 330 334 331 324 314 285 271 257 243 273 293 266 247 239 207 188 193 197 199 201 204 199 202 207 205 207 214 217 188 222 268 304 288 280 93 75 102 109 100 120 123 125 136 142 137 136 141 153 174 148 142 159 145 143 138 131 126 129 141 145 148
351 349 349 348 346 345 346 346 347 351 350 347 345 344 343 341 339 337 334 331 328 326 325 323 324 325 326 331 334 330 324 305 282 274 213 207 300 311 273 242 226 199 193 199 201 203 207 209 199 202 211 222 209 189 208 161 168 210 88 278 268 101 102 117 111 111 119 125 135 140 141 137 134 145 173 171 145 155 167 150 154 144 139 141 137 144 150 154
351 349 348 347 345 344 344 344 345 349 348 346 343 341 340 339 337 335 333 331 328 325 322 322 321 321 325 330 333 334 314 289 287 103 126 107 1 339 286 235 215 196 199 206 205 207 215 215 200 207 219 231 220 195 212 175 181 190 159 238 204 86 238 129 132 129 120 137 142 142 148 140 136 149 172 168 152 164 170 157 159 151 150 150 144 149 158 161
350 348 347 346 345 343 342 342 344 348 346 343 341 340 338 337 335 333 332 329 327 324 321 320 318 319 322 325 335 329 301 287 59 108 130 349 0 347 313 223 207 192 202 213 209 209 217 217 202 214 227 236 232 210 218 196 189 211 212 244 105 106 260 110 143 136 123 157 148 151 157 133 145 160 166 179 174 170 163 158 160 156 156 155 151 153 160 165
349 348 346 344 344 342 340 340 343 346 344 341 339 338 336 335 333 332 330 326 324 322 320 318 317 317 316 322 333 303 284 294 348 130 102 355 355 356 19 203 197 190 206 218 213 213 215 214 205 214 225 235 241 226 220 199 194 233 233 249 262 211 272 76 153 141 133 174 151 153 147 131 167 164 161 189 170 130 148 149 155 155 156 158 157 157 162 168
349 348 346 344 343 341 340 339 343 345 342 340 337 335 334 333 332 330 327 324 322 320 319 317 314 314 313 316 306 268 260 278 283 164 39 339 313 22 68 168 183 192 211 220 215 214 212 212 210 216 224 226 240 237 232 212 196 228 244 224 232 223 220 244 189 149 151 177 144 153 151 149 184 157 158 189 138 91 135 139 150 151 156 162 161 163 165 168
348 347 345 344 342 340 340 339 343 344 341 338 335 334 332 331 330 327 324 322 320 319 317 315 312 310 310 309 285 264 259 272 258 106 9 320 214 85 119 160 182 197 213 220 217 215 213 215 214 217 228 228 237 235 235 235 205 215 245 234 219 221 216 215 229 177 159 174 153 168 166 155 179 149 161 184 136 123 142 137 148 151 159 167 164 168 168 169
347 346 345 343 341 340 339 341 344 342 339 337 334 332 330 330 328 324 321 320 319 317 316 313 308 303 295 288 278 276 276 286 82 89 336 151 166 163 157 169 184 199 212 219 221 221 217 220 220 221 233 236 239 239 234 239 221 207 231 240 223 226 227 221 227 198 169 184 166 177 178 157 170 147 161 180 140 143 154 141 150 155 163 170 167 172 169 172
347 345 344 343 341 339 340 342 344 341 338 335 332 330 328 329 326 322 319 317 317 315 314 309 304 285 239 250 264 270 293 306 264 200 179 167 171 174 187 187 185 201 215 217 220 224 223 225 226 228 243 248 244 245 238 236 233 202 212 238 234 232 229 224 228 204 185 185 173 184 185 165 173 164 173 170 142 150 159 151 158 160 167 173 171 172 171 175
346 345 343 342 340 341 343 344 343 340 337 335 331 328 327 327 323 320 317 316 315 313 312 305 287 209 231 252 255 264 358 300 251 204 195 197 198 197 202 195 189 207 219 219 220 222 226 230 234 236 239 248 253 254 245 242 251 223 203 225 223 229 229 221 223 207 199 185 175 189 195 176 174 192 189 156 147 161 163 160 164 165 168 174 174 171 172 179
345 344 342 342 343 344 345 344 341 339 336 333 330 327 326 324 320 317 316 314 313 310 310 302 246 188 243 257 245 254 272 276 258 237 225 212 219 223 217 213 208 214 221 225 224 221 226 230 235 240 235 237 243 252 249 235 246 249 234 233 217 218 224 220 218 206 203 182 167 186 203 186 178 207 193 150 153 170 169 166 166 170 169 172 176 171 174 183
344 343 342 345 347 346 345 343 340 338 335 332 329 327 324 321 317 315 314 312 310 308 305 293 172 193 248 257 249 252 262 268 261 245 231 225 232 233 230 232 226 222 225 231 230 223 225 228 233 240 243 243 232 243 285 241 233 239 238 244 230 218 212 212 213 203 199 167 163 190 208 191 187 214 194 150 160 177 173 172 170 174 170 172 178 173 178 185
344 343 343 346 348 346 344 341 340 337 334 331 328 326 324 318 314 313 311 309 309 308 295 160 157 206 239 254 263 259 260 267 260 242 227 226 232 232 230 227 224 223 223 230 236 231 224 224 231 240 242 248 248 247 266 246 228 230 231 233 235 237 209 196 198 196 190 156 169 197 215 207 192 203 190 154 166 181 177 176 174 177 173 175 180 177 181 185
342 342 343 346 347 345 343 341 339 337 333 331 327 326 325 315 312 311 306 308 309 284 129 147 176 221 253 263 263 245 239 250 244 229 219 216 221 227 220 214 217 216 216 223 232 237 229 220 223 233 234 240 254 254 248 238 225 222 229 224 219 235 219 184 179 188 187 158 179 202 218 213 183 184 178 161 173 180 180 181 177 180 178 178 183 183 185 184
341 340 342 345 345 343 342 340 339 337 333 329 326 326 322 313 309 304 296 306 303 145 141 181 198 221 269 289 234 189 212 223 211 197 195 204 214 217 202 200 207 203 210 216 219 227 223 218 219 226 232 229 235 243 244 235 221 213 224 227 213 212 213 185 170 184 188 165 183 206 222 225 171 166 163 166 178 180 184 185 180 184 181 180 185 187 188 185
340 340 341 343 343 342 342 340 339 336 332 328 326 324 318 309 299 289 285 226 180 172 205 253 232 222 257 286 228 214 209 197 180 172 178 193 210 219 191 188 198 193 197 203 207 215 209 210 215 216 227 226 219 221 230 227 215 207 213 230 228 210 202 189 174 186 187 174 186 204 219 229 160 154 158 173 183 182 187 186 183 188 184 182 186 189 191 188
341 341 341 341 341 341 340 339 338 336 332 327 326 324 318 310 283 261 237 178 194 220 231 254 259 237 242 236 242 243 193 173 172 168 181 196 206 225 199 191 194 185 187 191 197 204 198 201 209 212 216 218 217 213 220 223 217 212 205 216 236 222 204 187 178 189 190 183 188 201 215 214 158 153 164 180 186 187 191 189 188 190 188 186 188 193 192 191
343 343 343 341 340 340 339 338 337 337 333 327 332 329 315 307 255 230 227 204 195 224 243 202 195 231 303 223 222 236 169 164 173 178 206 215 207 212 205 203 197 186 192 187 188 196 193 197 208 215 212 208 214 214 217 224 226 225 214 210 223 229 216 192 181 185 192 195 194 200 212 209 179 167 173 184 191 195 196 195 194 191 191 190 191 198 195 194
344 345 344 342 340 339 337 337 336 337 333 328 333 325 297 295 257 222 215 220 223 248 278 256 206 239 284 276 219 211 181 177 194 219 238 219 197 202 201 204 200 194 206 197 185 191 194 203 210 212 213 208 211 216 220 226 233 234 225 217 219 229 225 198 183 177 189 204 202 199 209 213 200 179 178 191 197 199 200 201 200 195 194 194 196 200 198 199
343 343 344 342 339 337 336 336 335 335 332 326 323 308 321 1 325 337 329 265 250 249 263 263 246 248 258 260 252 229 210 207 213 231 236 202 192 200 192 199 204 198 209 208 191 188 197 212 215 212 216 213 210 215 220 226 234 238 234 226 222 227 228 209 185 170 188 208 203 202 208 214 210 192 185 195 201 202 201 200 203 204 200 196 199 202 201 199
339 340 343 341 339 337 335 334 334 333 335 326 297 285 1 24 342 338 325 287 272 261 259 257 253 252 249 249 248 241 241 235 224 224 213 191 194 199 184 194 211 204 203 208 197 190 204 218 217 211 214 218 214 215 219 225 232 238 238 231 227 224 227 228 193 166 178 207 203 206 211 211 210 206 199 195 199 206 206 203 204 206 207 203 199 201 204 201
334 337 341 341 339 336 333 334 333 327 327 317 290 297 356 14 345 330 303 283 281 267 252 244 243 243 241 240 233 224 231 234 229 221 199 190 200 204 196 196 210 214 203 206 206 199 206 215 215 212 212 217 218 215 217 224 228 233 235 228 229 224 219 228 188 159 171 200 212 215 217 214 208 210 210 201 198 204 208 211 209 206 209 210 205 202 203 203
334 337 340 341 339 335 333 333 330 313 313 300 288 302 352 339 337 331 307 276 275 264 240 231 230 234 235 233 213 206 219 226 227 221 196 192 204 205 209 207 209 219 210 207 212 214 218 212 208 212 211 213 220 217 214 220 224 229 233 229 227 223 222 220 169 159 186 204 218 226 225 222 213 212 212 204 203 206 208 213 213 210 210 210 211 207 205 205
335 337 339 340 340 336 333 328 330 336 321 301 279 250 324 327 334 329 314 270 265 259 228 216 212 225 220 199 189 196 214 224 225 224 194 193 205 201 208 214 211 221 216 211 215 221 224 212 201 210 212 211 218 219 214 216 219 225 229 233 234 224 225 225 180 168 205 211 211 220 227 228 215 216 217 209 208 207 206 212 213 213 214 213 214 212 207 205
335 336 338 339 339 338 335 328 343 333 315 296 5 3 319 324 333 320 296 264 267 227 165 182 185 189 185 179 184 195 222 224 214 218 196 193 206 208 208 208 209 223 221 214 218 227 224 215 206 208 211 211 216 220 216 216 221 224 219 224 237 237 231 232 204 187 213 216 207 213 225 237 217 215 220 219 216 208 205 213 212 210 215 218 219 216 210 206
334 334 335 337 337 339 335 310 326 325 307 344 6 324 318 322 322 311 275 261 259 179 136 155 171 163 178 183 178 189 223 190 181 202 197 190 200 211 216 209 203 221 227 219 218 221 216 218 214 208 211 211 213 219 216 216 222 227 218 214 225 236 238 238 224 209 217 215 212 217 225 239 232 221 218 216 218 214 209 209 209 211 216 218 220 222 218 209
333 332 333 334 333 332 309 281 305 307 297 342 335 311 319 315 304 290 260 267 240 142 136 144 134 158 185 176 180 195 158 132 168 189 189 188 194 205 217 218 214 212 219 225 222 211 209 219 218 208 211 214 213 216 213 216 223 225 227 223 219 224 235 243 237 221 218 220 220 218 223 235 237 230 221 214 215 218 214 205 205 214 217 214 214 223 227 215
332 330 331 332 331 330 287 257 275 277 289 315 316 311 310 299 290 263 253 261 221 152 151 145 139 178 187 173 194 214 201 189 202 169 175 188 198 211 220 223 228 219 217 228 233 221 207 217 223 210 210 221 217 213 212 217 224 224 230 236 231 221 223 234 238 226 220 229 233 223 221 233 239 229 222 217 216 217 214 208 210 212 211 211 212 222 231 220
332 329 329 331 327 329 313 266 260 271 286 294 303 306 295 283 266 232 234 233 233 192 140 148 172 180 184 182 199 214 216 221 196 154 177 187 196 214 222 220 232 232 222 226 234 239 224 211 221 219 214 223 221 216 217 220 224 227 229 236 239 230 224 230 234 229 223 227 231 226 223 230 242 230 217 220 228 225 217 214 216 208 202 208 209 216 229 224
330 327 328 325 315 308 303 279 264 284 286 291 305 296 278 259 228 237 230 214 273 195 140 162 184 174 184 196 200 198 208 218 187 172 189 184 189 206 211 210 223 229 224 222 224 234 233 213 211 221 218 217 221 221 219 219 221 224 226 230 234 232 231 237 232 226 229 228 224 223 223 227 236 233 217 219 226 223 216 218 219 207 203 208 206 206 220 226
328 326 325 318 308 288 259 258 301 323 293 301 303 278 250 229 225 236 222 125 260 186 168 186 185 177 188 202 209 193 196 210 194 186 193 189 191 198 203 204 197 205 218 217 210 214 228 226 213 215 216 214 220 222 214 212 214 218 221 224 227 224 222 229 228 224 231 233 225 224 226 229 232 235 230 226 225 217 207 215 222 214 204 199 198 200 207 217
327 325 321 316 306 272 247 257 283 290 280 286 278 246 227 235 231 222 216 219 183 148 183 203 187 187 195 204 214 197 194 203 193 192 199 199 201 198 204 209 201 206 216 211 208 203 215 227 218 213 213 210 215 221 213 205 205 211 214 217 222 220 218 222 224 226 230 230 226 227 233 237 233 232 229 224 224 219 204 209 221 227 216 193 185 191 201 213
326 326 321 315 300 271 255 258 265 268 266 254 241 218 222 233 233 220 221 227 227 198 222 217 195 195 203 210 213 199 201 210 197 196 199 199 208 205 202 209 210 214 221 214 212 208 211 219 212 208 206 203 210 221 223 209 205 212 211 216 224 221 221 225 219 224 233 233 228 225 228 234 232 230 224 217 219 221 212 209 214 227 235 209 178 177 193 212
328 328 316 304 288 266 249 242 242 246 245 230 221 219 222 228 228 229 232 230 237 238 226 224 211 204 209 214 219 214 213 216 203 201 206 205 211 211 202 207 210 211 218 217 209 210 220 225 206 201 205 207 208 215 223 221 216 210 207 219 225 216 222 234 228 228 236 237 232 226 224 229 233 231 219 214 219 220 220 220 217 223 232 224 185 175 190 208
326 321 309 292 279 260 227 223 226 225 233 229 223 224 225 231 229 228 237 234 241 243 230 220 212 216 218 209 220 219 209 213 210 201 209 212 214 217 211 204 204 207 212 214 210 209 221 228 206 197 202 209 209 209 217 225 222 199 205 222 222 212 222 236 237 236 238 238 235 232 229 224 228 225 209 215 222 216 219 222 222 229 229 215 195 187 191 203
319 313 303 285 277 253 204 209 216 218 232 232 229 233 231 235 237 240 252 252 252 253 244 230 210 215 224 213 215 211 196 203 217 210 211 214 214 216 215 208 201 206 211 216 223 218 222 232 207 198 203 206 207 211 217 225 228 212 208 217 216 217 225 233 236 232 233 237 234 234 236 228 223 218 204 222 224 207 215 224 223 230 226 204 204 205 197 203
309 302 292 276 255 210 182 207 218 218 230 235 238 244 244 242 240 242 251 257 262 260 250 243 220 213 224 224 219 211 200 199 211 217 217 215 213 208 212 213 202 202 208 214 225 217 216 234 208 202 209 203 197 209 218 221 226 232 230 214 209 217 220 220 229 227 229 236 232 235 240 237 233 221 198 223 227 207 211 224 224 231 228 203 197 203 198 202
299 295 291 229 158 163 175 209 223 228 234 235 239 242 243 250 250 250 254 255 256 253 247 247 239 226 228 231 229 219 209 205 210 216 215 218 216 202 204 210 203 201 204 208 220 222 209 227 222 202 200 194 189 204 216 212 215 228 238 224 212 220 220 218 225 227 231 237 233 234 239 238 240 230 205 217 226 212 213 221 221 232 237 215 190 191 196 199
302 297 290 129 140 164 191 228 240 238 234 238 246 248 245 247 248 249 252 254 256 251 243 244 243 240 235 234 238 233 221 215 214 215 213 214 217 202 199 205 204 201 201 203 214 225 207 206 226 205 186 189 198 203 211 214 206 212 226 225 216 215 220 224 225 222 227 236 234 232 238 235 237 235 217 214 219 216 216 216 210 220 232 222 197 193 191 194
309 293 255 152 159 199 235 252 246 234 239 244 247 251 254 257 255 248 244 245 248 251 252 251 249 248 245 239 238 237 237 230 216 214 218 214 217 212 200 207 209 200 198 202 208 215 212 200 216 216 190 194 212 209 210 219 218 210 213 221 223 217 216 223 225 220 222 231 236 235 240 236 228 233 224 212 215 223 220 212 202 207 218 220 222 209 181 180
287 271 251 206 265 266 259 259 247 237 243 245 247 251 254 260 262 257 250 244 241 241 245 251 252 250 249 248 243 237 242 243 219 215 225 219 215 210 193 201 211 205 198 205 207 207 213 212 214 224 216 206 211 212 212 218 227 227 217 216 224 226 221 220 221 223 224 229 233 235 243 239 225 230 222 202 214 226 224 215 202 205 214 223 245 236 177 166
275 276 288 292 286 267 251 254 251 245 243 245 252 255 253 254 255 254 253 250 245 239 235 239 243 244 246 248 248 243 241 244 230 223 229 229 218 207 189 198 211 210 199 203 206 199 205 222 215 220 235 224 211 212 215 215 221 231 227 217 218 224 229 230 226 226 227 227 227 229 238 234 228 237 223 192 208 223 223 218 213 219 224 225 241 244 159 152
295 287 284 282 270 244 239 247 248 249 249 246 245 244 246 249 252 252 251 249 246 244 242 240 237 236 240 243 244 245 243 240 232 227 229 232 221 204 194 195 208 216 205 198 203 190 191 218 217 210 223 222 210 207 211 211 211 220 227 222 216 220 227 230 229 229 230 228 227 232 237 229 226 238 232 209 202 210 218 219 218 226 231 234 244 239 131 145
296 283 272 263 239 223 236 249 257 266 263 260 255 248 246 243 241 245 250 253 252 249 249 246 241 238 236 236 238 239 241 241 235 229 230 233 225 209 203 194 200 215 210 1 323 222 198 201 210 213 213 209 208 207 205 204 206 212 224 225 220 220 225 225 223 232 235 228 227 234 240 230 217 221 229 226 209 196 206 218 222 226 224 226 238 215 144 168
294 285 284 269 234 225 236 248 267 274 273 280 275 260 257 253 244 246 249 248 248 252 257 252 245 241 232 231 234 233 233 237 238 234 232 230 223 215 214 209 213 218 204 35 337 250 225 206 206 216 225 220 215 215 210 206 209 212 217 225 227 224 224 222 222 231 233 227 228 237 245 242 232 223 224 225 214 199 205 226 242 248 233 219 206 150 152 179
283 277 280 292 294 272 253 246 261 280 296 305 300 281 274 267 260 259 254 248 241 239 249 257 252 247 235 227 229 231 230 231 233 235 236 236 232 222 217 219 221 209 116 1 234 232 245 228 212 213 223 233 235 227 216 213 221 223 215 217 226 228 224 222 224 230 232 231 231 231 235 241 243 242 235 225 216 208 208 226 242 247 241 235 211 162 166 178
268 271 280 294 298 285 273 271 285 311 313 308 305 300 292 277 266 264 265 276 264 239 232 242 245 248 247 237 230 228 227 226 227 230 231 234 237 230 218 216 214 191 170 219 224 215 233 233 220 214 215 226 239 241 232 224 229 235 226 216 220 227 228 229 229 228 228 234 239 229 224 228 235 242 243 240 233 220 208 220 237 234 228 237 235 206 192 190
275 276 283 290 287 281 283 286 291 296 291 288 284 281 281 276 272 268 267 289 289 266 247 239 237 244 252 249 242 231 225 225 226 224 226 229 230 233 225 211 206 199 199 215 217 211 226 231 226 227 222 221 229 238 241 239 235 236 234 227 222 224 227 233 237 235 231 235 242 240 233 230 230 235 239 242 248 243 220 211 223 229 229 233 236 228 219 210
270 285 292 293 285 281 283 282 279 275 268 262 262 264 266 267 269 270 271 284 297 293 288 285 287 294 291 277 259 238 227 230 233 227 225 225 221 226 232 217 203 202 203 210 211 204 211 224 225 234 242 232 228 230 235 240 241 238 235 231 230 228 226 227 233 236 237 237 238 240 241 238 234 235 235 235 241 248 241 225 216 219 225 228 234 241 240 229
266 275 281 289 285 277 280 280 274 270 263 252 248 252 255 257 261 270 282 291 287 282 300 334 335 327 315 301 277 251 249 264 277 270 250 234 229 231 233 227 219 212 201 203 211 201 201 218 221 226 240 239 234 235 235 237 241 245 242 236 234 234 231 230 229 230 235 238 238 238 240 239 235 237 237 231 233 241 245 242 237 230 227 225 230 244 255 252
280 279 269 271 278 273 273 275 270 266 264 260 257 255 253 256 266 275 280 284 276 272 292 335 334 326 310 306 318 327 324 327 323 312 297 275 271 270 263 249 240 237 219 205 206 202 202 213 215 217 230 234 229 233 238 238 240 243 242 239 238 237 234 234 232 228 230 234 237 238 240 241 238 239 240 232 226 233 241 243 244 242 243 242 236 236 248 253